Regional Weather Roundup
Issued by NWS

Home | Current Version | Previous Version | Text Only | Print | Product List | Glossary On
Versions: 1 2 3 4 5 6 7 8 9 10 11 12 13 14 15 16 17 18 19 20 21 22 23 24 25 26 27 28 29 30 31 32 33 34 35 36 37 38 39 40 41 42 43 44 45 46 47 48 49 50
868
ASUS44 KJAN 171203
RWRMS

MISSISSIPPI HOURLY WEATHER ROUNDUP
NATIONAL WEATHER SERVICE JACKSON MS
700 AM CDT WED SEP 17 2014

NOTE: "FAIR: INDICATES FEW OR NO CLOUDS BELOW 12,000 FEET WITH NO
SIGNIFICANT WEATHER AND/OR OBSTRUCTIONS TO VISIBILITY.

MSZ001>002-007>008-010>013-018>021-025>028-034>036-171300-
NORTHWEST MISSISSIPPI

CITY           SKY/WX    TMP DP  RH WIND       PRES   REMARKS
CLARKSDALE     FAIR      63  63 100 CALM      30.02R
CLEVELAND      FAIR      66  66 100 NE3       29.99F FOG
GREENWOOD      CLEAR     67  65  93 NE7       29.99S
6HR MIN TEMP:  67; 6HR MAX TEMP:  73;

GREENVILLE     CLEAR     68  65  90 NE3       29.98S
6HR MIN TEMP:  68; 6HR MAX TEMP:  72;

GRENADA        FAIR      63  61  94 CALM      30.01S
OLIVE BRANCH   PTCLDY    59  59 100 CALM      30.02F
OXFORD         FAIR      59  59 100 NE5       30.03S
TUNICA         SUNNY     61  61 100 CALM      30.02S FOG
$$

MSZ003>006-009-014>017-022>024-029>033-037>039-171300-
NORTHEAST MISSISSIPPI

CITY           SKY/WX    TMP DP  RH WIND       PRES   REMARKS
COLUMBUS AFB   CLOUDY    66  65  97 NE5       30.00R
6HR MIN TEMP:  66; 6HR MAX TEMP:  70;

CORINTH        FOG       57  55  94 CALM      30.03S VSB 3/4
GOLDN TRIANGLE CLOUDY    66  63  88 N8        30.01R FOG
STARKVILLE     PTSUNNY   64  63  94 N5        30.00S FOG
TUPELO         CLEAR     62  60  93 NE6       30.01S FOG
6HR MIN TEMP:  62; 6HR MAX TEMP:  68;

$$

MSZ040-058-171300-
CENTRAL MISSISSIPPI

CITY           SKY/WX    TMP DP  RH WIND       PRES   REMARKS
JACKSON INTL   CLEAR     68  67  96 CALM      29.97S
6HR MIN TEMP:  66; 6HR MAX TEMP:  74;

JACKSON HAWKNS CLEAR     70  68  93 CALM      29.98S
6HR MIN TEMP:  69; 6HR MAX TEMP:  76;

MERIDIAN KEY   CLEAR     68  67  96 NW5       29.98R
6HR MIN TEMP:  68; 6HR MAX TEMP:  71;

MERIDIAN NAS   MOCLDY    70  67  90 N5        29.98S FOG
6HR MIN TEMP:  69; 6HR MAX TEMP:  72;

RAYMOND        HAZE      66  63  88 CALM      29.98S VSB 1
VICKSBURG      MOCLDY    66  65  96 CALM      29.97S
6HR MIN TEMP:  65; 6HR MAX TEMP:  74;

$$

MSZ059>079-171300-
SOUTH MISSISSIPPI

CITY           SKY/WX    TMP DP  RH WIND       PRES   REMARKS
BROOKHAVEN     FOG       72  72 100 CALM      30.00R VSB<1/4
HATTIESBURG    MOCLDY    69  68  96 CALM      29.98S
6HR MIN TEMP:  69; 6HR MAX TEMP:  71;

MCCOMB         MOCLDY    71  69  93 CALM      29.98S FOG
6HR MIN TEMP:  70; 6HR MAX TEMP:  73;

NATCHEZ        CLOUDY    70  68  94 CALM      29.99S
6HR MIN TEMP:  70; 6HR MAX TEMP:  72;

PINE BELT      CLOUDY    68  64  88 CALM      29.99S VSB<1/4
                                      6HR PCP:  0.01;

$$

MSZ080>082-171300-
COASTAL MISSISSIPPI

CITY           SKY/WX    TMP DP  RH WIND       PRES   REMARKS
BAY ST LOUIS   CLEAR     72  68  88 CALM      29.96  FOG
BILOXI         MOCLDY    72  71  95 NE5       29.96R
6HR MIN TEMP:  72; 6HR MAX TEMP:  74;

PASCAGOULA     CLOUDY    71  70  96 CALM      29.96S
6HR MIN TEMP:  71; 6HR MAX TEMP:  73;

GULFPORT       PTCLDY    72  70  93 CALM      29.96R
6HR MIN TEMP:  72; 6HR MAX TEMP:  74;

$$



USA.gov is the U.S. government's official web portal to all federal, state and local government web resources and services.